DW1549 Fauske NO current weather conditions

sailwx.info

Wind from 179

Air temperature 8.9° C
Dewpoint 8.3° C

Last reported at 2018-May-21 06:36 UTC.
Time now 2018-May-21 07:18 UTC

Location: N 67°16' E 015°25'.
View on Google Maps.

See reports from other nearby stations

  
Tides and Currents Weather Stations Pressure Air Temp Water Temp Dewpoint Dewpoint Depression Visibility Wind Speed Wind Dir Waves Ship Positions
date/time (UTC)wind fromknots sea level pressurealtimeterstation pressurevisibilityair tempwater tempwave heightnotes
2018-May-21 07:06 179 8.9
2018-May-21 06:36 179 8.9
2018-May-21 06:26 179 8.9
2018-May-21 06:16 179 8.9
2018-May-21 05:46 179 8.9
2018-May-21 05:36 179 8.9
2018-May-21 05:26 179 8.9
2018-May-21 04:46 179 8.3
2018-May-21 04:36 179 8.9
2018-May-21 04:26 179 8.9
2018-May-21 04:16 179 8.9
2018-May-21 04:06 179 8.9
2018-May-21 03:56 179 8.3
2018-May-21 03:46 179 8.3
2018-May-21 03:26 179 8.3
2018-May-21 03:16 179 8.3
2018-May-21 03:06 180 1 gusting 5 8.3
2018-May-21 02:56 202 8.9
2018-May-21 02:46 202 8.9
2018-May-21 02:36 202 8.9
2018-May-21 02:26 202 8.9
2018-May-21 02:06 202 9.4
2018-May-21 01:56 202 9.4
2018-May-21 01:36 202 8.9
2018-May-21 01:26 202 8.9
2018-May-21 01:16 202 8.9
2018-May-21 01:06 202 9.4
2018-May-21 00:56 202 9.4
2018-May-21 00:36 202 9.4
2018-May-21 00:26 202 9.4
2018-May-21 00:16 202 9.4
2018-May-21 00:06 202 9.4
2018-May-20 23:56 202 5 gusting 10 10.0
2018-May-20 23:46 197 5 gusting 10 10.0
2018-May-20 23:36 202 6 gusting 10 10.0
2018-May-20 23:26 191 4 gusting 11 10.0
2018-May-20 23:16 183 0 gusting 11 9.4
2018-May-20 23:06 184 4 gusting 10 9.4
2018-May-20 22:56 191 6 gusting 12 10.0
2018-May-20 22:46 201 7 gusting 13 9.4
2018-May-20 22:36 180 1 gusting 10 9.4
2018-May-20 22:26 192 1 gusting 7 9.4
2018-May-20 22:06 196 9.4
2018-May-20 21:56 209 1 gusting 6 9.4
2018-May-20 21:26 216 9.4
2018-May-20 21:16 216 9.4
2018-May-20 20:46 216 10.0
2018-May-20 20:36 216 10.0
2018-May-20 20:26 216 10.6
2018-May-20 20:16 216 11.1
2018-May-20 20:06 214 0 gusting 2 11.7
2018-May-20 19:56 207 0 gusting 10 11.7
2018-May-20 19:46 192 6 gusting 12 12.2
2018-May-20 19:26 194 6 gusting 15 12.2
2018-May-20 19:16 194 6 gusting 17 12.2
2018-May-20 19:06 163 11 gusting 19 12.2
2018-May-20 18:46 181 12 gusting 22 12.2
2018-May-20 18:36 171 12 gusting 19 12.2
2018-May-20 18:26 180 7 gusting 20 12.2
2018-May-20 18:16 168 11 gusting 17 12.2
2018-May-20 18:06 168 10 gusting 13 12.2
2018-May-20 17:56 187 7 gusting 14 12.2
2018-May-20 17:46 182 6 gusting 12 11.7
2018-May-20 17:36 201 5 gusting 13 12.2
2018-May-20 17:26 215 6 gusting 17 12.2
2018-May-20 17:16 199 4 gusting 14 12.2
2018-May-20 16:56 201 10 gusting 14 11.7
2018-May-20 16:26 204 7 gusting 17 11.7
2018-May-20 16:16 211 6 gusting 17 11.7
2018-May-20 16:06 216 10 gusting 19 11.7
2018-May-20 15:56 219 9 gusting 18 11.7
2018-May-20 15:46 217 6 gusting 17 11.7
2018-May-20 15:36 238 11 gusting 14 11.7
2018-May-20 15:26 223 7 gusting 17 11.7
2018-May-20 15:06 221 6 gusting 17 11.7
2018-May-20 14:56 261 6 gusting 15 11.7
2018-May-20 14:46 215 8 gusting 15 11.7
2018-May-20 14:26 211 7 gusting 15 11.1
2018-May-20 14:16 209 11 gusting 17 11.1
2018-May-20 14:06 200 7 gusting 13 11.1
2018-May-20 13:56 209 4 gusting 11 10.6
2018-May-20 13:46 214 11.1
2018-May-20 13:36 238 11.1
2018-May-20 13:26 252 0 gusting 4 11.7
2018-May-20 13:16 234 0 gusting 8 11.7
2018-May-20 13:06 264 3 gusting 10 12.2
2018-May-20 12:56 245 1 gusting 6 12.8
2018-May-20 12:46 233 1 gusting 10 12.8
2018-May-20 12:36 276 4 gusting 13 13.3
2018-May-20 12:16 224 7 gusting 13 13.9
2018-May-20 11:56 274 6 gusting 15 15.0
2018-May-20 11:26 228 6 gusting 18 14.4
2018-May-20 10:56 202 10 gusting 18 15.0
2018-May-20 10:46 202 6 gusting 17 13.9
2018-May-20 10:36 204 6 gusting 11 14.4
2018-May-20 10:26 183 5 gusting 13 14.4
2018-May-20 10:16 182 10 gusting 17 14.4
2018-May-20 10:06 183 7 gusting 14 14.4
2018-May-20 09:56 184 7 gusting 13 13.9
2018-May-20 09:36 195 8 gusting 13 13.9
2018-May-20 09:26 210 6 gusting 12 13.9
2018-May-20 09:06 180 5 gusting 17 13.9
2018-May-20 08:56 176 5 gusting 15 13.9
2018-May-20 08:36 166 7 gusting 17 13.9
2018-May-20 08:26 161 8 gusting 17 13.9
2018-May-20 08:16 158 8 gusting 17 13.9
2018-May-20 08:06 165 8 gusting 17 13.9
2018-May-20 07:46 182 11 gusting 15 13.3
2018-May-20 07:36 157 8 gusting 14 13.3
2018-May-20 07:16 170 10 gusting 17 12.8
2018-May-20 07:06 180 8 gusting 18 12.8
2018-May-20 06:56 174 8 gusting 17 12.2
2018-May-20 06:46 174 9 gusting 15 11.7
2018-May-20 06:36 185 7 gusting 14 11.1
2018-May-20 06:26 125 6 gusting 13 10.0
2018-May-20 06:06 128 7 gusting 12 9.4
2018-May-20 05:56 111 7 gusting 14 9.4
2018-May-20 05:46 126 8 gusting 13 8.9
2018-May-20 05:36 134 10 gusting 15 8.9
2018-May-20 05:06 122 11 gusting 17 8.3
2018-May-20 04:56 119 10 gusting 17 8.3
2018-May-20 04:46 128 8 gusting 17 8.3
2018-May-20 04:36 133 5 gusting 13 8.3
2018-May-20 04:06 128 11 gusting 15 7.8
2018-May-20 03:56 132 8 gusting 13 7.8
2018-May-20 03:46 122 5 gusting 11 7.8
2018-May-20 03:36 123 5 gusting 12 7.8
2018-May-20 03:26 116 6 gusting 10 7.2
2018-May-20 03:16 136 1 gusting 10 6.1
2018-May-20 03:06 357 5.6
2018-May-20 02:56 357 5.6
2018-May-20 02:46 201 5.6
2018-May-20 02:36 066 5.6
2018-May-20 02:26 076 5.6
2018-May-20 02:16 076 5.6
2018-May-20 02:06 033 6.1
2018-May-20 01:46 132 6.1
2018-May-20 01:36 037 0 gusting 8 6.1
2018-May-20 01:26 357 0 gusting 5 5.6
2018-May-20 01:06 032 1 gusting 5 5.6
2018-May-20 00:46 200 5.6
2018-May-20 00:36 200 5.0
2018-May-20 00:26 200 5.0
2018-May-19 23:46 200 3.9
2018-May-19 23:36 200 3.9
2018-May-19 23:26 200 3.9
2018-May-19 23:06 213 3.9
2018-May-19 22:56 213 3.9
2018-May-19 22:46 213 3.9
2018-May-19 22:36 222 3.9
2018-May-19 22:26 222 3.9
2018-May-19 22:16 222 3.9
2018-May-19 21:56 222 3.9
2018-May-19 21:46 222 3.9
2018-May-19 21:36 238 3.9
2018-May-19 21:26 238 3.9
2018-May-19 21:16 238 4.4
2018-May-19 21:06 238 4.4
2018-May-19 20:56 238 4.4
2018-May-19 20:46 238 5.0
2018-May-19 20:36 238 5.0
2018-May-19 20:26 238 5.6
2018-May-19 20:06 238 5.6
2018-May-19 19:56 238 6.1
2018-May-19 19:46 238 6.1
2018-May-19 19:16 238 6.7
2018-May-19 18:46 238 7.2
2018-May-19 18:36 238 7.2
2018-May-19 18:26 238 7.2
2018-May-19 18:16 238 7.8
2018-May-19 18:06 259 7.8
2018-May-19 17:46 250 3 gusting 10 7.8
2018-May-19 17:36 230 1 gusting 7 8.3
2018-May-19 17:26 258 0 gusting 7 8.3
2018-May-19 17:16 247 8.9
2018-May-19 17:06 234 3 gusting 10 8.9
2018-May-19 16:56 249 0 gusting 8 8.9
2018-May-19 16:46 222 0 gusting 8 9.4
2018-May-19 16:26 249 1 gusting 10 9.4
2018-May-19 16:16 252 2 gusting 8 8.9
2018-May-19 16:06 258 1 gusting 8 9.4
2018-May-19 15:46 238 2 gusting 10 9.4
2018-May-19 15:36 261 1 gusting 10 8.9
2018-May-19 15:26 267 1 gusting 10 8.9
2018-May-19 15:16 248 1 gusting 10 8.9
2018-May-19 15:06 320 5 gusting 11 8.9
2018-May-19 14:46 259 5 gusting 8 8.9
2018-May-19 14:36 246 1 gusting 11 8.3
2018-May-19 14:26 236 5 gusting 10 8.9
2018-May-19 14:16 282 1 gusting 12 8.9
2018-May-19 13:56 270 4 gusting 13 10.0
2018-May-19 13:46 295 2 gusting 15 10.0
2018-May-19 13:26 244 2 gusting 10 10.0
2018-May-19 13:16 287 3 gusting 10 9.4
2018-May-19 13:06 206 2 gusting 10 9.4
2018-May-19 12:56 278 3 gusting 12 8.9
2018-May-19 12:46 254 6 gusting 13 9.4
2018-May-19 12:36 251 6 gusting 13 9.4
2018-May-19 12:26 220 5 gusting 13 9.4
2018-May-19 11:36 236 3 gusting 12 8.3
2018-May-19 11:26 246 0 gusting 13 8.3
2018-May-19 11:16 277 3 gusting 13 7.8
2018-May-19 11:06 247 1 gusting 10 7.2
2018-May-19 10:36 232 4 gusting 12 7.2
2018-May-19 10:19 237 5 gusting 12 7.2
2018-May-19 10:09 245 4 gusting 13 7.2
2018-May-19 09:59 335 4 gusting 14 8.3
2018-May-19 09:46 260 1 gusting 6 10.0
2018-May-19 09:26 276 9.4
2018-May-19 09:16 240 2 gusting 10 9.4
2018-May-19 09:06 253 1 gusting 5 9.4
2018-May-19 08:56 290 9.4
2018-May-19 08:36 275 10.0
2018-May-19 08:26 257 0 gusting 6 10.0
2018-May-19 08:16 261 1 gusting 5 10.6
2018-May-19 08:06 238 1 gusting 6 10.6
2018-May-19 07:56 260 2 gusting 10 11.1
2018-May-19 07:46 255 2 gusting 7 10.6
2018-May-19 07:36 257 1 gusting 8 11.1
2018-May-19 07:26 217 5 gusting 12 11.1